CW5066 Weather Reports


time (UTC)temp
C
wind
direction
speed
KPH
gust
KPH
rain 1hr
cm
rain 24hr
cm
rain mn
cm
humidity
%
barometer
mb
20260507212516 8 0 11.3 19.3 0.05 1.07 0.91 41 1022.0
20260507211516 8 68 11.3 22.5 0.08 1.07 0.91 42 1022.4
20260507210516 8 0 8.0 24.1 0.10 1.07 0.91 41 1022.5
20260507205516 8 0 12.9 27.4 0.13 1.04 0.89 43 1023.0
20260507204516 7 0 16.1 30.6 0.18 1.04 0.89 43 1022.3
20260507203516 8 0 12.9 29.0 0.25 1.04 0.89 43 1022.6
20260507202556 8 0 11.3 22.5 0.30 1.02 0.86 43 1022.8
20260507201516 7 0 11.3 33.8 0.33 0.99 0.84 46 1022.1
20260507200516 7 0 16.1 29.0 0.38 0.97 0.81 45 1022.2
20260507195516 7 0 14.5 38.6 0.43 0.91 0.76 45 1022.3
20260507194516 7 0 14.5 27.4 0.43 0.86 0.71 46 1022.3
20260507193536 7 0 19.3 43.5 0.41 0.79 0.64 49 1022.2
20260507192516 7 0 16.1 38.6 0.41 0.71 0.56 49 1021.8
20260507191516 7 0 19.3 38.6 0.43 0.66 0.51 49 1021.6
20260507190536 6 0 11.3 24.1 0.41 0.58 0.43 48 1021.4
20260507185516 6 0 14.5 25.7 0.30 0.48 0.33 51 1021.4
20260507184516 6 0 20.9 41.8 0.25 0.43 0.28 50 1021.5
20260507183516 6 0 20.9 37.0 0.23 0.38 0.23 51 1021.6
20260507182516 6 0 24.1 46.7 0.15 0.33 0.15 50 1021.9
20260507181515 6 0 14.5 29.0 0.08 0.25 0.08 51 1022.3
20260507180515 6 0 16.1 32.2 0.03 0.20 0.03 51 1021.8
20260507175516 5 0 25.7 54.7 0.03 0.20 0.03 51 1021.7
20260507174516 5 0 25.7 45.1 0.03 0.20 0.03 51 1021.6
20260507173515 5 0 24.1 43.5 0.00 0.18 0.00 52 1021.8
20260507172535 4 0 19.3 40.2 0.00 0.18 0.00 55 1021.2
20260507171515 4 0 20.9 38.6 0.00 0.18 0.00 56 1021.3
20260507170516 4 0 17.7 45.1 0.00 0.18 0.00 56 1021.4
20260507165516 3 0 12.9 40.2 0.00 0.18 0.00 59 1021.0
20260507164536 3 158 4.8 9.7 0.00 0.18 0.00 60 1021.5
20260507163515 3 293 1.6 8.0 0.00 0.18 0.00 63 1021.6
20260507162515 3 248 1.6 9.7 0.00 0.18 0.00 62 1021.9
20260507161515 2 293 6.4 11.3 0.00 0.18 0.00 61 1021.4
20260507160515 2 225 3.2 12.9 0.00 0.18 0.00 62 1021.5
20260507155516 2 248 1.6 8.0 0.00 0.18 0.00 62 1022.3
20260507154535 2 270 3.2 9.7 0.00 0.18 0.00 61 1021.9
20260507153518 2 0 6.4 12.9 0.00 0.18 0.00 62 1022.2
20260507152518 2 0 4.8 11.3 0.00 0.18 0.00 61 1023.2
20260507151517 2 0 4.8 9.7 0.00 0.18 0.00 60 1022.7
20260507150537 2 0 11.3 20.9 0.00 0.18 0.00 59 1022.8
20260507145517 2 0 16.1 25.7 0.00 0.18 0.00 61 1023.0
20260507144517 2 0 6.4 16.1 0.00 0.18 0.00 60 1023.0
20260507143537 2 0 16.1 25.7 0.00 0.18 0.00 60 1022.8
20260507142517 2 0 16.1 25.7 0.00 0.18 0.00 61 1022.9
20260507141517 2 0 19.3 32.2 0.00 0.18 0.00 60 1023.0
20260507140517 2 0 12.9 27.4 0.00 0.18 0.00 61 1023.2
20260507135517 2 0 11.3 19.3 0.00 0.18 0.00 61 1024.1
20260507134537 2 0 14.5 24.1 0.00 0.18 0.00 62 1023.5
20260507133517 1 0 17.7 32.2 0.00 0.18 0.00 62 1023.4
20260507132517 1 0 16.1 30.6 0.00 0.18 0.00 64 1024.1
20260507131517 0 0 14.5 27.4 0.00 0.18 0.00 64 1023.6
20260507130517 0 0 8.0 16.1 0.00 0.18 0.00 65 1023.7
20260507125516 0 0 9.7 20.9 0.00 0.18 0.00 66 1023.6
20260507124517 0 0 12.9 22.5 0.00 0.18 0.00 65 1023.6
20260507123537 0 0 14.5 22.5 0.00 0.18 0.00 63 1023.5
20260507122517 0 0 8.0 16.1 0.00 0.18 0.00 63 1024.2
20260507121557 0 0 12.9 25.7 0.00 0.18 0.00 64 1024.1
20260507120517 0 0 9.7 17.7 0.00 0.18 0.00 64 1023.2
20260507115516 0 0 8.0 20.9 0.00 0.18 0.00 63 1023.5
20260507114517 0 0 9.7 17.7 0.00 0.18 0.00 63 1023.6
20260507113517 0 0 9.7 25.7 0.00 0.18 0.00 63 1023.7
20260507112517 0 0 8.0 16.1 0.00 0.18 0.00 61 1023.7
20260507111517 0 0 6.4 20.9 0.00 0.18 0.00 59 1023.7
20260507110516 0 113 6.4 19.3 0.00 0.18 0.00 60 1023.6
20260507105516 0 135 6.4 22.5 0.00 0.18 0.00 59 1023.8
20260507104516 0 113 8.0 22.5 0.00 0.18 0.00 58 1023.8
20260507103516 0 158 1.6 6.4 0.00 0.18 0.00 59 1023.4
20260507102537 -1 180 1.6 8.0 0.00 0.18 0.00 62 1022.0
20260507101517 -1 180 6.4 11.3 0.00 0.18 0.00 65 1021.9
20260507100516 -1 180 3.2 9.7 0.00 0.18 0.00 63 1021.6
20260507095516 -1 158 4.8 9.7 0.00 0.18 0.00 63 1021.5
20260507094516 -1 135 4.8 12.9 0.00 0.18 0.00 63 1021.9
20260507093516 0 113 3.2 6.4 0.00 0.18 0.00 62 1022.2
20260507092536 0 158 4.8 16.1 0.00 0.18 0.00 61 1022.2
20260507091516 0 135 6.4 19.3 0.00 0.18 0.00 60 1022.2
20260507090516 0 45 8.0 17.7 0.00 0.18 0.00 59 1022.4
20260507085536 0 23 8.0 32.2 0.00 0.18 0.00 57 1022.3
20260507084516 0 45 3.2 11.3 0.00 0.18 0.00 56 1022.7
20260507083516 -1 68 8.0 16.1 0.00 0.18 0.00 56 1022.6
20260507082536 0 23 4.8 9.7 0.00 0.18 0.00 55 1021.0
20260507081536 -1 0 4.8 11.3 0.00 0.18 0.00 55 1021.2
20260507080516 -1 0 6.4 16.1 0.00 0.18 0.00 54 1021.3
20260507075516 -1 0 9.7 19.3 0.00 0.18 0.00 52 1021.9
20260507074516 -1 0 19.3 30.6 0.00 0.18 0.00 52 1021.2
20260507073516 -1 0 14.5 25.7 0.00 0.18 0.00 53 1021.1
20260507072516 -2 0 8.0 16.1 0.00 0.18 0.00 54 1021.1
20260507071516 -2 0 12.9 20.9 0.00 0.18 0.00 56 1021.1
20260507070516 -2 0 19.3 40.2 0.00 0.18 0.00 56 1020.9
20260507065536 -2 0 19.3 38.6 0.00 0.18 0.00 57 1021.0
20260507064516 -2 0 16.1 30.6 0.00 0.18 0.00 59 1021.2
20260507063516 -2 0 22.5 33.8 0.00 0.18 0.00 61 1021.1
20260507062516 -2 0 17.7 45.1 0.00 0.18 0.00 61 1021.2
20260507061515 -2 0 22.5 38.6 0.00 0.18 0.00 63 1021.2
20260507060515 -2 0 11.3 29.0 0.00 0.18 0.00 62 1021.5
20260507055517 -3 0 8.0 17.7 0.00 0.18 0.18 63 1020.2
20260507054536 -3 0 9.7 22.5 0.00 0.18 0.18 63 1020.2
20260507053516 -2 0 19.3 32.2 0.00 0.18 0.18 61 1020.6
20260507052516 -2 0 20.9 35.4 0.00 0.18 0.18 63 1019.6
20260507051517 -2 0 19.3 32.2 0.00 0.18 0.18 62 1020.4
20260507050516 -3 0 19.3 32.2 0.00 0.18 0.18 65 1019.5
20260507045516 -3 0 17.7 32.2 0.00 0.18 0.18 64 1019.5
20260507044536 -3 0 16.1 29.0 0.00 0.18 0.18 63 1019.3
20260507043516 -3 0 20.9 32.2 0.00 0.18 0.18 62 1019.2
20260507042516 -3 0 16.1 27.4 0.00 0.18 0.18 64 1018.6
20260507041516 -3 0 17.7 33.8 0.00 0.18 0.18 61 1018.4
20260507040536 -3 0 16.1 38.6 0.00 0.18 0.18 63 1018.2
20260507035516 -3 0 16.1 35.4 0.00 0.18 0.18 63 1018.3
20260507034536 -2 0 16.1 33.8 0.00 0.18 0.18 64 1018.2
20260507033516 -2 0 12.9 29.0 0.00 0.18 0.18 63 1018.2
20260507032636 -2 0 12.9 29.0 0.00 0.18 0.18 64 1018.2
20260507031516 -2 0 14.5 32.2 0.00 0.18 0.18 65 1018.1
20260507030516 -2 0 12.9 30.6 0.00 0.18 0.18 63 1017.7
20260507025516 -2 0 16.1 48.3 0.00 0.18 0.18 63 1017.8
20260507024516 -2 0 16.1 29.0 0.00 0.18 0.18 63 1018.3
20260507023536 -2 0 17.7 45.1 0.00 0.18 0.18 64 1018.1
20260507022516 -2 0 20.9 45.1 0.00 0.18 0.18 63 1017.4
20260507021536 -2 0 19.3 46.7 0.00 0.18 0.18 64 1017.3
20260507020515 -2 0 12.9 30.6 0.00 0.18 0.18 63 1017.0
20260507015556 -2 0 14.5 32.2 0.00 0.18 0.18 63 1017.0
20260507014516 -1 0 9.7 27.4 0.00 0.18 0.18 65 1017.1
20260507013536 -1 0 8.0 19.3 0.03 0.18 0.18 63 1017.2
20260507012515 0 0 14.5 38.6 0.03 0.18 0.18 60 1018.0
20260507011516 0 0 16.1 48.3 0.03 0.18 0.18 60 1017.8
20260507010555 0 0 14.5 43.5 0.03 0.18 0.18 59 1018.6
20260507005516 0 0 8.0 24.1 0.03 0.18 0.18 59 1018.9
20260507004516 0 0 8.0 24.1 0.05 0.18 0.18 55 1018.8
20260507003516 0 0 11.3 22.5 0.03 0.15 0.15 58 1018.7
20260507002535 0 0 8.0 25.7 0.05 0.15 0.15 56 1018.5
20260507001516 1 45 6.4 16.1 0.05 0.15 0.15 61 1019.1
20260507000515 1 0 6.4 19.3 0.05 0.15 0.15 59 1019.1
20260506235515 1 45 9.7 22.5 0.05 0.15 0.15 59 1019.1
20260506234515 0 0 6.4 24.1 0.05 0.13 0.13 61 1018.4
20260506233515 1 0 6.4 20.9 0.05 0.13 0.13 62 1019.1
20260506232515 0 0 8.0 20.9 0.03 0.10 0.10 64 1018.3
20260506231515 0 0 6.4 17.7 0.05 0.10 0.10 60 1018.1
20260506230517 0 0 4.8 14.5 0.08 0.10 0.10 66 1018.2
20260506225517 0 0 8.0 37.0 0.08 0.10 0.10 65 1018.3
20260506224517 0 45 8.0 19.3 0.05 0.08 0.08 63 1018.1
20260506223517 0 0 8.0 19.3 0.05 0.08 0.08 65 1018.5
20260506222517 0 0 8.0 20.9 0.05 0.08 0.08 65 1018.3
20260506221517 0 23 3.2 6.4 0.03 0.05 0.05 73 1017.8
20260506220537 -1 0 6.4 16.1 0.00 0.03 0.03 82 1018.1
20260506215537 -1 0 4.8 14.5 0.00 0.03 0.03 81 1017.4
20260506214517 -1 293 3.2 8.0 0.00 0.03 0.03 81 1018.1
20260506213517 -1 315 1.6 6.4 0.00 0.05 0.03 80 1017.5